Daily Bio-Meteorological Summary

Last 30 Days

Daily Data | America/Los_Angeles
as of 8/12/22 1:39 PM PDT
Date Daily Max Temp (°F) Daily Min Temp (°F) Daily Rain (In) GDDs (DL) GDDs (Mx/Mn) Seas GDDs (DL) Seas GDDs (Smpl) Chilling <=45F (hrs) Chill Hrs 32-45F (hrs) Utah Chilling (Units) Hrs 70-85F (hrs) Hrs > 95F (hrs) Powdery Mildew Stress (pts) Bee Hrs Today (Hrs) Hrs <= 32F (hrs) Hrs <= 28F (hrs)
8/11/22 98.8 65.3 0.00 31.3 32.1 3,189 3,185 0.0 0.0 -24.0 5.72 4.51 90 13.1 0.0 0.0
8/10/22 96.6 64.6 0.00 29.9 30.6 3,157 3,153 0.0 0.0 -24.0 7.17 0.34 100 13.1 0.0 0.0
8/9/22 98.7 68.9 0.00 31.4 33.8 3,127 3,122 0.0 0.0 -24.0 7.63 2.30 100 13.1 0.0 0.0
8/8/22 98.3 68.0 0.00 32.3 33.1 3,096 3,088 0.0 0.0 -24.0 13.16 3.50 100 13.1 0.0 0.0
8/7/22 99.5 66.3 0.00 32.6 32.9 3,064 3,055 0.0 0.0 -24.0 7.14 4.39 100 13.2 0.0 0.0
8/6/22 99.5 66.6 0.00 31.8 33.0 3,031 3,022 0.0 0.0 -24.0 7.69 3.64 100 13.2 0.0 0.0
8/5/22 92.5 68.0 0.09 30.6 30.3 2,999 2,989 0.0 0.0 -24.0 5.98 0.00 90 10.7 0.0 0.0
8/4/22 104.8 74.2 0.00 37.9 39.5 2,969 2,959 0.0 0.0 -24.0 11.53 5.75 100 13.2 0.0 0.0
8/3/22 104.4 71.2 0.00 36.9 37.8 2,931 2,919 0.0 0.0 -24.0 12.45 7.15 100 13.3 0.0 0.0
8/2/22 100.7 70.2 0.00 35.3 35.5 2,894 2,882 0.0 0.0 -24.0 12.09 6.78 90 13.3 0.0 0.0
8/1/22 103.7 72.2 0.00 36.7 37.9 2,859 2,846 0.0 0.0 -24.0 11.44 7.65 80 13.3 0.0 0.0
7/31/22 103.8 76.8 0.00 37.9 40.3 2,822 2,808 0.0 0.0 -24.0 11.07 5.86 70 13.4 0.0 0.0
7/30/22 105.6 72.2 0.00 38.4 38.9 2,784 2,768 0.0 0.0 -24.0 11.86 8.38 60 13.4 0.0 0.0
7/29/22 106.7 66.9 0.00 36.5 36.8 2,746 2,729 0.0 0.0 -24.0 6.54 8.24 50 13.4 0.0 0.0
7/28/22 102.3 69.3 0.00 35.2 35.8 2,709 2,692 0.0 0.0 -24.0 12.06 7.14 40 13.4 0.0 0.0
7/27/22 97.5 66.1 0.00 32.8 31.8 2,674 2,656 0.0 0.0 -24.0 5.91 4.02 30 13.5 0.0 0.0
7/26/22 101.5 66.7 0.00 34.4 34.1 2,641 2,625 0.0 0.0 -24.0 8.40 6.68 40 13.5 0.0 0.0
7/25/22 104.2 62.5 0.00 33.6 33.3 2,607 2,590 0.0 0.0 -22.5 4.55 8.12 30 13.5 0.0 0.0
7/24/22 105.1 61.0 0.00 33.0 33.0 2,573 2,557 0.0 0.0 -22.0 4.18 8.45 40 13.5 0.0 0.0
7/23/22 102.5 61.4 0.00 31.5 32.0 2,540 2,524 0.0 0.0 -22.5 4.50 6.62 50 13.6 0.0 0.0
7/22/22 105.1 62.3 0.00 33.0 33.7 2,509 2,492 0.0 0.0 -22.0 4.93 7.41 60 13.6 0.0 0.0
7/21/22 105.6 64.9 0.00 35.1 35.2 2,476 2,458 0.0 0.0 -24.0 6.11 8.42 70 13.6 0.0 0.0
7/20/22 106.4 66.6 0.00 36.1 36.5 2,440 2,423 0.0 0.0 -24.0 6.59 8.46 60 13.6 0.0 0.0
7/19/22 104.5 67.1 0.00 35.8 35.8 2,404 2,387 0.0 0.0 -24.0 6.90 8.55 50 13.7 0.0 0.0
7/18/22 107.8 70.7 0.00 35.9 39.3 2,369 2,351 0.0 0.0 -24.0 8.90 6.19 40 13.7 0.0 0.0
7/17/22 111.6 70.7 0.00 41.3 41.2 2,333 2,312 0.0 0.0 -24.0 9.97 10.15 30 13.7 0.0 0.0
7/16/22 108.9 68.5 0.00 38.9 38.7 2,291 2,270 0.0 0.0 -24.0 6.67 9.68 20 13.7 0.0 0.0
7/15/22 107.1 67.9 0.00 37.2 37.5 2,252 2,232 0.0 0.0 -24.0 6.67 8.69 10 13.7 0.0 0.0
7/14/22 104.0 64.1 0.00 34.6 34.0 2,215 2,194 0.0 0.0 -23.5 5.03 7.75 0 13.8 0.0 0.0
7/13/22 101.7 65.1 0.00 32.9 33.4 2,181 2,160 0.0 0.0 -24.0 5.96 6.15 0 13.8 0.0 0.0
Max 111.6 76.8 0.09 41.3 41.2 - - 0.0 0.0 -22.0 13.16 10.15 - 13.8 0.0 0.0
Avg - - - 34.7 35.3 - - 0.0 0.0 -23.8 7.96 6.37 - 13.4 0.0 0.0
Min 92.5 61.0 0.00 29.9 30.3 - - 0.0 0.0 -24.0 4.18 0.00 - 10.7 0.0 0.0
Total - - - 1,040.8 1,057.9 - - 0.0 0.0 -712.5 238.79 190.96 - 400.6 0.0 0.0